SCP
0 0 0 0 0 0 0 0 0 0 0 0 0 0 0 0 0 0 0 0 0 0 0 0 0 0 0 0 0 0 0 0 0 0 0 0 0 0 0 0 0 0 0 0
0 0 0 0 0 0 0 0 0 0 0 0 0 0 0 0 0 0 0 0 0 0 0 0 0 0 0 0 0 0 0 0 0 0 0 0 0 0 0 0 0 0 0 0
0 0 0 0 0 0 0 0 0 0 0 0 0 0 0 0 0 0 0 0 0 0 0 0 0 0 0 0 0 0 0 0 0 0 0 0 0 0 0 0 0 0 0 0
0 0 0 0 0 0 0 0 0 0 0 0 0 0 0 0 0 0 0 0 0 0 0 0 0 0 0 0 0 0 0 0 0 0 0 0 0 0 0 0 0 0 0 0
0 0 0 0 0 0 0 0 0 0 0 0 0 0 0 0 0 0 0 0 0 0 0 0 0 0 0 0 0 0 0 0 0 0 0 0 0 0 0 0 0 0 0 0
0 0 0 0 0 0 0 0 0 0 0 0 0 0 0 0 0 0 0 0 0 0 0 0 0 0 0 0 0 0 0 0 0 0 0 0 0 0 0 0 0 0 0 0
0 0 0 0 0 0 0 0 0 0 0 0 0 0 0 0 0 0 0 0 0 0 0 0 0 0 0 0 0 0 0 0 0 0 0 0 0 0 0 0 0 0 0 0
0 0 0 0 0 0 0 0 0 0 0 0 0 0 0 0 0 0 0 0 0 0 0 0 0 0 0 0 0 0 0 0 0 0 0 0 0 0 0 0 0 0 0 0
0 0 0 0 0 0 0 0 0 0 0 0 0 0 0 0 0 0 0 0 0 0 0 0 0 0 0 0 0 0 0 0 0 0 0 0 0 0 0 0 0 0 0 0
0 0 0 0 0 0 0 0 0 0 0 0 0 0 0 0 0 0 0 0 0 0 0 0 0 0 0 0 0 0 0 0 0 0 0 0 0 0 0 0 0 0 0 0
0 0 0 0 0 0 0 0 0 0 0 0 0 0 0 0 0 0 0 0 0 0 0 0 0 0 0 0 0 0 0 0 0 0 0 0 0 0 0 0 0 0 0 0
0 0 0 0 0 0 0 0 0 0 0 0 0 0 0 0 0 0 0 0 0 0 0 0 0 0 0 0 0 0 0 0 0 0 0 0 0 0 0 0 0 0 0 0
0 0 0 0 0 0 0 0 0 0 0 0 0 0 0 0 0 0 0 0 0 0 0 0 0 0 0 0 0 0 0 0 0 0 0 0 0 0 0 0 0 0 0 0
0 0 0 0 0 0 0 0 0 0 0 0 0 0 0 0 0 0 0 0 0 0 0 0 0 0 0 0 0 0 0 0 0 0 0 0 0 0 0 0 0 0 0 0
0 0 0 0 0 0 0 0 0 0 0 0 0 0 0 0 0 0 0 0 0 0 0 0 0 0 0 0 0 0 0 0 0 0 0 0 0 0 0 0 0 0 0 0
0 0 0 0 0 0 0 0 0 0 0 0 0 0 0 0 0 0 0 0 0 0 0 0 0 0 0 0 0 0 0 0 0 0 0 0 0 0 0 0 0 0 0 0
0 0 0 0 0 0 0 0 0 0 0 0 0 0 0 0 0 0 0 0 0 0 0 0 0 0 0 0 0 0 0 0 0 0 0 0 0 0 0 0 0 0 0 0
0 0 0 0 0 0 0 0 0 0 0 0 0 0 0 0 0 0 0 0 0 0 0 0 0 0 0 0 0 0 0 0 0 0 0 0 0 0 0 0 0 0 0 0
0 0 0 0 0 0 0 0 0 0 0 0 0 0 0 0 0 0 0 0 0 0 0 0 0 0 0 0 0 0 0 0 0 0 0 0 0 0 0 0 0 0 0 0
0 0 0 0 0 0 0 0 0 0 0 0 0 0 0 0 0 0 0 0 0 0 0 0 0 0 0 0 0 0 0 0 0 0 0 0 0 0 0 0 0 0 0 0
0 0 0 0 0 0 0 0 0 0 0 0 0 0 0 0 0 0 0 0 0 0 0 0 0 0 0 0 0 0 0 0 0 0 0 0 0 0 0 0 0 0 0 0
0 0 0 0 0 0 0 0 0 0 0 0 0 0 0 0 0 0 0 0 0 0 0 0 0 0 0 0 0 0 0 0 0 0 0 0 0 0 0 0 0 0 0 0
0 0 0 0 0 0 0 0 0 0 0 0 0 0 0 0 0 0 0 0 0 0 0 0 0 0 0 0 0 0 0 0 0 0 0 0 0 0 0 0 0 0 0 0
0 0 0 0 0 0 0 0 0 0 0 0 0 0 0 0 0 0 0 0 0 0 0 0 0 0 0 0 0 0 0 0 0 0 0 0 0 0 0 0 0 0 0 0
0 0 0 0 0 0 0 0 0 0 0 0 0 0 0 0 0 0 0 0 0 0 0 0 0 0 0 0 0 0 0 0 0 0 0 0 0 0 0 0 0 0 0 0
0 0 0 0 0 0 0 0 0 0 0 0 0 0 0 0 0 0 0 0 0 0 0 0 0 0 0 0 0 0 0 0 0 0 0 0 0 0 0 0 0 0 0 0
Wind_Speed
7 7 12 15 12 3 8 7 7 6 4 5 8 10 11 5 6 8 9 10 12 16 12 8 9 9 9 10 11 12 12 11 9 6 6 6 6 5 4 5 6 7 6 7
7 13 9 8 8 5 6 7 7 3 1 4 6 10 10 7 8 10 12 13 14 12 9 9 9 11 13 13 14 13 13 12 11 9 7 4 4 4 4 5 6 7 7 7
10 5 10 9 10 11 8 8 7 3 2 1 2 9 11 9 6 7 8 9 10 13 14 12 12 13 14 15 16 14 15 14 13 10 6 4 3 3 4 5 5 6 7 7
7 5 11 13 13 12 11 6 4 2 2 3 4 7 10 9 10 11 12 10 12 13 13 12 12 13 15 17 14 14 14 14 13 12 10 10 9 8 7 5 5 6 7 7
10 9 14 15 12 10 4 7 5 3 1 3 4 6 10 5 12 14 13 14 15 14 14 14 14 15 15 13 13 13 13 13 13 13 14 13 10 7 5 5 6 6 5 5
4 4 8 8 8 10 8 8 7 4 2 8 10 8 11 9 12 9 11 14 15 14 13 13 11 9 9 9 10 10 12 13 13 15 14 14 13 10 8 7 6 5 3 3
6 4 4 6 12 9 9 9 5 4 6 10 6 9 14 9 9 11 13 14 14 12 11 11 11 11 11 11 12 12 14 14 14 15 15 15 13 12 12 9 8 7 4 4
14 11 12 9 11 13 13 11 9 9 8 4 4 12 12 9 6 7 8 8 7 8 9 11 11 11 11 11 12 12 14 14 14 15 14 13 12 9 8 9 8 8 6 5
15 9 6 7 5 14 13 10 3 3 1 3 8 9 11 7 8 8 9 9 11 10 9 9 8 8 8 9 10 11 12 12 13 13 12 11 11 10 8 8 8 6 6 6
10 8 6 7 6 5 10 11 6 5 6 6 6 7 8 6 10 10 10 12 13 9 8 7 6 6 6 6 5 6 8 9 9 10 10 8 9 9 9 8 9 8 8 8
6 9 6 8 13 16 10 11 8 8 5 6 6 10 9 12 12 12 13 11 9 8 8 7 5 4 4 4 5 5 6 6 7 8 8 8 8 8 9 8 9 9 9 9
6 8 6 6 2 8 8 11 11 10 8 6 4 10 6 7 6 6 8 6 5 6 5 5 5 5 5 5 5 5 5 6 6 7 7 8 8 9 9 9 9 10 10 9
9 9 9 3 3 6 10 11 14 9 5 5 7 11 4 3 5 6 6 6 4 4 5 5 5 6 5 5 5 5 5 5 5 6 8 8 9 9 10 10 10 10 10 10
9 6 10 15 10 10 9 10 12 10 8 10 13 11 7 6 7 6 5 5 4 5 6 6 6 6 6 5 5 5 5 5 6 7 8 9 9 9 10 10 10 10 10 11
9 7 6 6 6 12 9 13 14 15 14 13 14 14 14 11 8 6 4 4 4 5 7 8 8 7 6 6 6 6 6 6 6 7 8 8 8 9 9 10 10 9 9 10
9 9 7 3 5 8 7 12 17 18 18 18 14 16 11 7 5 6 6 6 7 9 10 9 9 9 9 9 8 7 7 7 7 8 8 8 9 9 9 10 10 10 10 9
8 8 8 4 3 4 8 16 20 15 14 15 22 21 5 7 10 11 9 9 11 11 10 11 12 12 11 10 10 10 8 7 7 8 8 9 9 10 10 10 10 11 10 9
12 9 6 6 6 9 14 8 13 18 17 17 15 10 11 14 12 9 8 10 11 10 10 11 11 10 8 8 8 8 8 9 9 9 9 9 10 10 10 10 10 9 8 9
10 11 7 6 6 9 10 7 12 13 17 17 18 14 9 5 2 8 9 10 12 11 10 9 9 9 9 10 11 10 9 9 10 10 10 10 11 11 11 11 10 8 8 8
7 9 8 7 8 15 13 7 7 7 14 12 14 14 10 7 6 12 8 9 10 8 6 6 6 8 10 10 11 12 11 11 12 11 10 9 10 11 11 11 9 6 8 8
8 6 10 8 8 13 6 5 11 12 14 5 11 12 12 14 15 9 4 4 5 4 4 6 8 9 9 11 12 12 11 12 9 9 9 9 8 9 9 9 7 9 8 8
14 11 11 9 9 14 5 10 14 10 2 3 5 7 10 11 8 4 1 1 1 2 3 6 7 7 7 10 12 12 11 8 9 10 10 9 8 8 8 10 8 8 9 9
10 12 10 12 12 3 9 9 5 3 3 2 2 2 5 5 4 2 1 1 0 1 3 3 5 6 6 8 9 10 8 9 10 10 10 9 9 7 8 10 11 8 7 7
3 3 6 4 5 3 4 1 1 1 2 1 1 1 2 2 1 1 0 0 1 1 2 3 5 6 6 5 5 6 9 10 11 11 10 9 10 9 7 6 7 8 8 7
6 6 5 5 2 1 1 2 2 2 3 4 4 3 2 2 2 1 1 1 1 1 1 2 4 4 5 5 5 7 9 11 11 10 9 9 8 9 8 6 4 6 4 5
2 5 8 7 7 6 4 1 3 4 3 3 4 4 5 4 3 3 2 2 2 2 2 2 3 3 4 5 5 6 8 10 11 10 9 8 7 7 7 7 5 5 5 6
Wind_Direction
146 169 198 194 193 159 158 174 203 219 210 188 222 240 253 234 220 231 222 215 217 224 224 207 200 196 192 193 194 194 194 193 184 181 186 191 202 199 198 200 196 193 190 186
151 212 198 162 178 175 170 191 209 250 202 199 247 256 256 233 218 220 218 218 220 227 224 213 201 197 200 201 201 200 199 195 192 194 187 180 174 187 193 192 195 194 191 191
181 183 154 159 175 191 203 198 194 203 40 342 302 279 257 250 231 238 230 224 224 222 223 216 207 206 205 207 205 203 202 198 196 189 172 155 153 155 177 192 197 198 194 194
186 166 159 172 188 184 212 184 170 151 129 249 208 261 260 237 240 235 231 224 225 225 225 220 211 209 209 211 205 204 201 199 194 187 185 184 193 201 198 186 187 190 194 195
191 169 168 185 186 164 149 130 122 105 122 277 233 241 267 227 234 236 230 226 228 225 221 221 215 213 212 207 202 202 199 199 194 192 194 196 204 204 181 170 179 186 185 189
149 169 175 174 153 145 113 92 77 69 93 248 218 212 262 222 218 224 226 226 228 226 221 224 221 212 211 202 198 195 196 200 196 195 197 199 201 192 178 178 180 179 175 180
165 194 191 145 139 149 147 137 144 173 207 242 182 208 247 237 220 214 220 224 225 223 219 220 216 209 206 198 197 195 196 200 197 198 201 201 199 193 192 185 182 176 176 179
172 196 193 180 170 170 177 170 173 181 202 241 188 227 248 239 241 245 252 249 244 233 223 221 216 209 205 200 196 195 198 201 197 199 202 200 195 193 193 185 177 180 179 174
177 195 162 177 150 144 161 191 170 129 127 218 233 260 292 252 253 252 252 251 244 236 227 223 216 207 201 196 195 195 197 198 197 198 196 193 190 187 181 173 169 162 154 146
144 160 171 157 121 162 162 151 147 175 185 231 258 243 236 224 228 233 235 237 241 233 223 216 206 200 194 188 184 185 192 195 192 191 190 187 185 182 171 162 161 155 148 143
126 133 147 161 183 176 154 165 171 175 200 190 237 257 222 208 207 217 227 231 234 225 214 206 197 185 173 164 168 174 181 183 184 185 180 174 172 164 159 159 157 150 145 143
135 118 145 202 236 176 163 171 167 180 206 204 221 265 262 232 247 246 251 256 245 221 206 191 180 171 171 172 171 173 175 178 179 173 167 166 157 153 154 151 147 144 140 138
143 127 118 132 196 184 198 189 190 191 158 181 206 256 282 268 268 258 258 265 252 222 197 181 179 183 184 179 174 171 169 165 159 156 156 154 153 153 151 146 143 139 136 132
134 141 167 187 193 169 189 196 190 181 204 222 229 248 289 290 277 269 253 246 231 216 203 196 196 195 190 183 176 169 163 155 152 151 153 154 153 150 145 141 139 137 136 134
150 179 190 185 160 155 174 187 186 200 209 217 233 233 242 254 266 272 249 223 217 222 216 209 205 199 192 186 179 170 161 155 152 150 150 146 138 135 134 133 131 129 127 128
167 177 171 181 172 169 179 191 194 208 215 226 239 244 235 240 248 257 241 224 228 230 224 215 208 201 198 192 183 172 166 160 154 153 148 140 137 134 134 133 131 127 124 124
162 146 154 187 127 110 227 205 199 210 217 214 231 240 215 231 237 240 237 227 231 230 220 213 210 207 201 192 180 177 168 155 154 151 147 147 144 141 140 137 134 134 133 131
157 143 134 135 126 211 234 203 195 212 225 216 226 227 206 221 231 237 225 222 234 232 223 218 211 204 190 175 167 159 153 156 156 155 155 154 150 144 142 139 138 136 135 138
160 146 131 145 183 250 263 212 190 199 236 225 228 233 225 228 274 269 236 219 227 228 221 215 201 187 173 171 163 155 158 161 163 167 166 164 157 151 150 149 145 139 138 136
148 140 137 152 182 226 237 195 161 153 252 230 215 224 211 160 220 250 235 214 228 230 217 195 170 164 170 168 159 161 168 173 180 176 167 161 158 156 156 151 144 135 137 135
148 156 173 174 208 246 237 159 138 183 238 210 194 205 191 193 219 240 231 208 218 217 191 163 164 173 174 162 161 171 176 187 175 153 148 151 153 151 146 138 136 136 134 130
165 170 185 173 209 237 182 148 179 212 192 178 185 198 198 213 233 257 287 252 215 164 153 158 165 167 159 162 168 179 187 168 144 144 147 149 146 142 141 138 135 136 138 136
184 183 177 191 215 186 171 187 200 159 178 178 177 202 195 210 234 244 257 279 227 155 155 154 156 151 154 169 176 181 165 144 144 146 148 146 141 139 146 148 147 145 146 148
228 135 141 190 228 200 188 169 132 133 144 121 109 103 143 178 194 177 142 23 47 86 136 139 146 158 167 170 170 156 145 148 149 152 151 150 148 145 143 145 152 155 161 161
175 157 161 193 197 107 253 203 170 127 98 84 70 63 69 112 95 96 85 63 75 80 101 136 159 168 165 154 148 143 150 151 152 152 152 153 152 151 149 144 154 158 163 173
159 169 175 200 190 170 183 175 137 113 91 83 86 69 47 53 60 60 57 47 61 80 95 121 140 148 150 150 149 151 158 158 155 156 160 160 156 153 151 145 131 150 151 163